TimeEST,TemperatureF,Dew PointF,Humidity,Sea Level PressureIn,VisibilityMPH,Wind Direction,Wind SpeedMPH,Gust SpeedMPH,PrecipitationIn,Events,Conditions,WindDirDegrees,DateUTC
12:15 AM,53.6,28.4,38,30.10,10.0,East,5.8,-,N/A,,Overcast,90,2013-02-22 05:15:00
12:35 AM,53.6,30.2,41,30.10,10.0,East,8.1,-,N/A,,Overcast,90,2013-02-22 05:35:00
1:15 AM,53.6,30.2,41,30.13,10.0,NE,5.8,-,N/A,,Mostly Cloudy,40,2013-02-22 06:15:00
1:35 AM,53.6,32.0,44,30.16,10.0,NNE,3.5,-,N/A,,Overcast,30,2013-02-22 06:35:00
1:55 AM,53.6,30.2,41,30.17,10.0,NNE,4.6,-,N/A,,Overcast,20,2013-02-22 06:55:00
2:15 AM,53.6,30.2,41,30.18,10.0,NNE,5.8,-,N/A,,Overcast,20,2013-02-22 07:15:00
2:35 AM,51.8,33.8,50,30.16,10.0,NE,5.8,-,N/A,Rain,Light Rain,40,2013-02-22 07:35:00
2:55 AM,46.4,37.4,71,30.16,10.0,ENE,5.8,-,N/A,Rain,Light Rain,60,2013-02-22 07:55:00
3:15 AM,46.4,41.0,81,30.17,7.0,ENE,3.5,-,N/A,Rain,Rain,60,2013-02-22 08:15:00
3:35 AM,44.6,42.8,93,30.16,3.0,Calm,Calm,-,N/A,Rain,Rain,0,2013-02-22 08:35:00
3:55 AM,44.6,42.8,93,30.15,5.0,ENE,4.6,-,N/A,Rain,Rain,70,2013-02-22 08:55:00
4:15 AM,42.8,42.8,100,30.17,4.0,NNE,6.9,-,N/A,Rain,Heavy Rain,30,2013-02-22 09:15:00
4:35 AM,42.8,42.8,100,30.13,5.0,ENE,10.4,17.3,N/A,Rain,Rain,70,2013-02-22 09:35:00
4:55 AM,42.8,42.8,100,30.11,7.0,ENE,9.2,17.3,N/A,Rain,Light Rain,70,2013-02-22 09:55:00
5:15 AM,42.8,42.8,100,30.15,7.0,ENE,4.6,16.1,N/A,Rain,Rain,70,2013-02-22 10:15:00
5:35 AM,42.8,42.8,100,30.14,4.0,East,9.2,19.6,N/A,Rain,Rain,80,2013-02-22 10:35:00
5:55 AM,42.8,42.8,100,30.13,5.0,East,12.7,20.7,N/A,Rain,Rain,90,2013-02-22 10:55:00
6:15 AM,42.8,42.8,100,30.15,2.0,East,6.9,18.4,N/A,,Overcast,80,2013-02-22 11:15:00
6:35 AM,42.8,41.0,93,30.14,4.0,East,10.4,17.3,N/A,Rain,Rain,90,2013-02-22 11:35:00
6:55 AM,42.8,41.0,93,30.16,4.0,East,9.2,-,N/A,Rain,Heavy Rain,80,2013-02-22 11:55:00
7:15 AM,41.0,41.0,100,30.12,5.0,ESE,11.5,23.0,N/A,Rain,Rain,110,2013-02-22 12:15:00
7:35 AM,41.0,41.0,100,30.14,7.0,ENE,8.1,16.1,N/A,Rain,Rain,60,2013-02-22 12:35:00
7:55 AM,41.0,41.0,100,30.16,7.0,NE,5.8,-,N/A,,Overcast,40,2013-02-22 12:55:00
8:35 AM,41.0,41.0,100,30.18,7.0,NNE,5.8,-,N/A,,Overcast,30,2013-02-22 13:35:00
8:55 AM,41.0,41.0,100,30.18,5.0,NE,5.8,-,N/A,,Light Drizzle,50,2013-02-22 13:55:00
9:15 AM,41.0,41.0,100,30.18,5.0,NE,4.6,-,N/A,,Overcast,50,2013-02-22 14:15:00
9:35 AM,41.0,41.0,100,30.18,4.0,NE,5.8,-,N/A,Rain,Rain,50,2013-02-22 14:35:00
9:55 AM,41.0,41.0,100,30.19,5.0,NNE,4.6,-,N/A,,Heavy Drizzle,20,2013-02-22 14:55:00
10:15 AM,41.0,41.0,100,30.19,3.0,NNE,6.9,-,N/A,,Drizzle,30,2013-02-22 15:15:00
10:35 AM,41.0,41.0,100,30.18,3.0,NNE,6.9,-,N/A,,Drizzle,30,2013-02-22 15:35:00
10:55 AM,41.0,41.0,100,30.19,3.0,NNE,6.9,-,N/A,,Drizzle,30,2013-02-22 15:55:00
11:15 AM,41.0,41.0,100,30.18,3.0,NE,8.1,-,N/A,,Drizzle,50,2013-02-22 16:15:00
11:35 AM,41.0,41.0,100,30.18,2.5,NE,6.9,-,N/A,,Drizzle,50,2013-02-22 16:35:00
11:55 AM,41.0,41.0,100,30.17,2.5,ENE,9.2,-,N/A,,Drizzle,60,2013-02-22 16:55:00
12:15 PM,41.0,41.0,100,30.16,2.5,NE,8.1,-,N/A,,Light Drizzle,50,2013-02-22 17:15:00
12:35 PM,41.0,41.0,100,30.17,3.0,NE,8.1,-,N/A,,Drizzle,50,2013-02-22 17:35:00
12:55 PM,41.0,41.0,100,30.16,2.0,NE,5.8,-,N/A,Rain,Heavy Rain,50,2013-02-22 17:55:00
1:15 PM,41.0,41.0,100,30.16,2.5,NE,3.5,-,N/A,,Drizzle,50,2013-02-22 18:15:00
1:35 PM,41.0,41.0,100,30.15,2.5,NE,5.8,-,N/A,,Drizzle,50,2013-02-22 18:35:00
1:55 PM,41.0,41.0,100,30.14,2.5,NE,4.6,-,N/A,,Overcast,40,2013-02-22 18:55:00
2:15 PM,41.0,41.0,100,30.14,3.0,ENE,5.8,-,N/A,,Overcast,60,2013-02-22 19:15:00
2:35 PM,41.0,41.0,100,30.14,2.0,NE,5.8,-,N/A,,Overcast,40,2013-02-22 19:35:00
2:55 PM,41.0,41.0,100,30.14,1.5,NNE,5.8,-,N/A,,Overcast,30,2013-02-22 19:55:00
3:15 PM,41.0,41.0,100,30.12,1.5,NE,8.1,-,N/A,,Overcast,50,2013-02-22 20:15:00
3:35 PM,41.0,41.0,100,30.12,2.5,ENE,4.6,-,N/A,,Overcast,70,2013-02-22 20:35:00
3:55 PM,41.0,41.0,100,30.11,3.0,ENE,6.9,-,N/A,,Overcast,70,2013-02-22 20:55:00
4:15 PM,41.0,41.0,100,30.11,1.8,ENE,8.1,-,N/A,,Overcast,70,2013-02-22 21:15:00
4:35 PM,41.0,41.0,100,30.11,2.0,NE,5.8,-,N/A,,Overcast,50,2013-02-22 21:35:00
4:55 PM,41.0,41.0,100,30.11,2.0,NNE,8.1,-,N/A,,Overcast,30,2013-02-22 21:55:00
5:15 PM,41.0,41.0,100,30.10,1.5,ENE,6.9,-,N/A,,Overcast,60,2013-02-22 22:15:00
5:35 PM,41.0,41.0,100,30.09,1.2,ENE,5.8,-,N/A,,Overcast,60,2013-02-22 22:35:00
5:55 PM,41.0,41.0,100,30.09,1.8,ENE,4.6,-,N/A,,Light Drizzle,70,2013-02-22 22:55:00
6:15 PM,41.0,41.0,100,30.10,2.5,NE,5.8,-,N/A,,Overcast,50,2013-02-22 23:15:00
6:35 PM,41.0,41.0,100,30.10,2.5,ENE,4.6,-,N/A,Rain,Rain,60,2013-02-22 23:35:00
6:55 PM,41.0,41.0,100,30.12,2.5,ENE,3.5,-,N/A,,Drizzle,60,2013-02-22 23:55:00
7:15 PM,41.0,41.0,100,30.11,3.0,NE,4.6,-,N/A,,Drizzle,40,2013-02-23 00:15:00
7:35 PM,41.0,41.0,100,30.11,5.0,Calm,Calm,-,N/A,,Light Drizzle,0,2013-02-23 00:35:00
7:55 PM,41.0,41.0,100,30.12,5.0,NE,4.6,-,N/A,,Overcast,40,2013-02-23 00:55:00
8:15 PM,41.0,41.0,100,30.13,3.0,NE,5.8,-,N/A,,Overcast,50,2013-02-23 01:15:00
8:35 PM,41.0,41.0,100,30.14,3.0,NNE,4.6,-,N/A,,Overcast,20,2013-02-23 01:35:00
8:55 PM,41.0,41.0,100,30.13,3.0,NE,5.8,-,N/A,,Overcast,40,2013-02-23 01:55:00
9:15 PM,41.0,41.0,100,30.12,3.0,NE,4.6,-,N/A,,Overcast,40,2013-02-23 02:15:00
9:35 PM,41.0,41.0,100,30.12,5.0,NE,4.6,-,N/A,,Overcast,40,2013-02-23 02:35:00
9:55 PM,41.0,41.0,100,30.10,3.0,ENE,4.6,-,N/A,,Overcast,60,2013-02-23 02:55:00
10:15 PM,41.0,41.0,100,30.09,2.5,ENE,6.9,-,N/A,,Overcast,70,2013-02-23 03:15:00
10:35 PM,41.0,41.0,100,30.11,2.0,ENE,3.5,-,N/A,,Overcast,70,2013-02-23 03:35:00
10:55 PM,41.0,41.0,100,30.08,2.0,East,9.2,-,N/A,,Overcast,80,2013-02-23 03:55:00
11:15 PM,41.0,41.0,100,30.12,2.0,Calm,Calm,-,N/A,,Light Drizzle,0,2013-02-23 04:15:00
11:35 PM,41.0,41.0,100,30.13,2.5,Calm,Calm,-,N/A,Rain,Light Rain,0,2013-02-23 04:35:00
11:55 PM,41.0,41.0,100,30.11,3.0,NNE,5.8,-,N/A,Rain,Rain,30,2013-02-23 04:55:00